[[{"header":{"parameterUnit":"m.s-1","parameterCategory":1,"la1":30.2991,"la2":30.254,"lo1":-89.0895,"lo2":-89.0444,"dy":0.0017,"dx":0.0017,"nx":28,"ny":28,"refTime":"2024-07-02T03:00:00:Z","depth":0,"parameterNumber":2,"parameterNumberName":"U-component_of_WINDS"},"data":[0,0,0,0,0,0,0,0,0,0,0,0,0,0,0,0,0,0,0,0,0,0,0,0,0,0,0,0,0,0,0,0,0,0,0,0,0,0,0,0,0,0,0,0,0,0,0,0,0,0,0,0,0,0,0,0,0,0,-0.8982,-0.8981,0,-0.891,-0.891,-0.8909,-0.8867,-0.8867,-0.8867,-0.8867,-0.8793,-0.8791,-0.8789,0,0,0,0,0,0,0,0,0,0,0,0,0,-0.9084,-0.9082,-0.8982,-0.8981,-0.898,-0.8911,-0.891,-0.8909,-0.8868,-0.8867,-0.8867,-0.8867,-0.8794,-0.8791,-0.8789,0,0,0,0,0,0,0,0,0,0,0,0,0,-0.9029,-0.9082,-0.8982,-0.8951,-0.8948,-0.8911,-0.8909,-0.8908,-0.8868,-0.8867,-0.8867,-0.8867,-0.8794,-0.8792,-0.8789,-0.8777,0,0,-0.8781,-0.8779,0,0,0,0,0,0,0,0,-0.9032,-0.9025,-0.8957,-0.8954,-0.895,-0.8898,-0.8918,-0.8864,-0.8868,-0.8898,-0.8867,-0.8867,-0.8828,-0.8822,-0.8809,-0.8773,-0.877,-0.878,-0.8779,-0.8778,-0.8777,0,0,0,0,0,0,0,-0.9036,-0.9028,-0.8954,-0.8956,-0.8951,-0.8941,-0.8933,-0.8908,-0.8865,-0.8895,-0.8892,-0.8884,-0.8826,-0.8812,-0.8807,-0.8769,-0.878,-0.8778,-0.8776,-0.8775,-0.8719,-0.8719,0,0,0,0,0,0,-0.9045,-0.9031,-0.8956,-0.8952,-0.8991,-0.894,-0.8931,-0.8915,-0.8865,-0.8858,-0.8885,-0.8883,-0.8817,-0.8811,-0.8805,-0.8787,-0.8778,-0.8775,-0.8773,-0.8719,-0.8719,-0.8719,0,0,0,0,0,0,-0.9047,-0.9038,-0.8959,-0.8991,-0.898,-0.8938,-0.892,-0.8913,-0.8899,-0.8857,-0.8849,-0.8878,-0.8817,-0.8809,-0.8784,-0.8784,-0.8774,-0.8771,-0.8719,-0.8719,-0.8719,-0.8752,0,0,0,0,0,0,-0.905,-0.9039,-0.9034,-0.8991,-0.8978,-0.894,-0.892,-0.8912,-0.8895,-0.8892,-0.8849,-0.8842,-0.8816,-0.8788,-0.8781,-0.878,-0.8769,-0.8719,-0.8719,-0.8719,-0.8751,-0.8753,-0.8755,0,0,0,0,0,-0.9054,-0.9046,-0.9034,-0.9025,-0.8971,-0.894,-0.8932,-0.8902,-0.8895,-0.889,-0.8863,-0.8843,-0.8785,-0.8786,-0.8778,-0.8776,-0.8719,-0.8719,-0.8719,-0.8749,-0.8753,-0.8755,0,0,0,0,0,0,-0.909,-0.904,-0.9026,-0.9004,-0.8976,-0.8933,-0.8925,-0.8907,-0.8881,-0.8879,-0.8843,-0.8833,-0.8812,-0.8792,-0.8794,-0.8761,-0.875,-0.8749,-0.8776,-0.8778,-0.8781,-0.8786,-0.8767,0,0,0,0,0,-0.9095,-0.9074,-0.9031,-0.9016,-0.9003,-0.8967,-0.8952,-0.8931,-0.8901,-0.8889,-0.886,-0.8832,-0.8807,-0.8792,-0.8767,-0.8748,-0.8738,-0.8742,-0.8745,-0.8747,-0.8746,-0.8734,-0.8736,-0.8721,-0.8721,-0.8721,0,0,-0.9106,-0.9076,-0.9065,-0.9023,-0.8999,-0.8978,-0.8957,-0.8935,-0.8919,-0.8886,-0.8861,-0.8839,-0.8805,-0.8783,-0.8772,-0.8765,-0.8748,-0.8747,-0.8749,-0.8747,-0.8735,-0.8736,-0.8738,-0.8721,-0.8721,-0.8721,0,0,-0.9115,-0.9091,-0.9075,-0.9052,-0.9017,-0.8992,-0.8989,-0.8948,-0.8932,-0.8907,-0.8881,-0.8862,-0.882,-0.8797,-0.878,-0.8781,-0.8763,-0.8774,-0.8786,-0.8776,-0.8777,-0.8778,-0.8778,-0.8779,-0.8774,-0.8774,-0.8774,0,-0.9133,-0.9101,-0.9069,-0.905,-0.9032,-0.9001,-0.8985,-0.8964,-0.8922,-0.8911,-0.8904,-0.8851,-0.8826,-0.8799,-0.8799,-0.8786,-0.8781,-0.8778,-0.8779,-0.878,-0.878,-0.878,-0.878,-0.8775,-0.8775,-0.8775,-0.8775,0,-0.9125,-0.9102,-0.9094,-0.9055,-0.9036,-0.9019,-0.8985,-0.897,-0.8951,-0.8928,-0.8903,-0.8872,-0.884,-0.8832,-0.8813,-0.8802,-0.8799,-0.8786,-0.8774,-0.8784,-0.8783,-0.8783,-0.8778,-0.8777,-0.8776,-0.8776,0,0,-0.9154,-0.9098,-0.9095,-0.9077,-0.9036,-0.9019,-0.9,-0.8969,-0.8957,-0.8929,-0.8913,-0.8878,-0.8867,-0.8847,-0.8826,-0.8817,-0.882,-0.8805,-0.8803,-0.8808,-0.8805,-0.8815,-0.8816,-0.8808,-0.8808,-0.8807,-0.8808,0,-0.9157,-0.9121,-0.9093,-0.9068,-0.9047,-0.9018,-0.9002,-0.8975,-0.8953,-0.8932,-0.8908,-0.8884,-0.887,-0.8858,-0.8848,-0.8822,-0.8819,-0.8821,-0.8791,-0.8791,-0.88,-0.8815,-0.8825,-0.8827,-0.8808,-0.8808,-0.8808,0,-0.9155,-0.9129,-0.9102,-0.9064,-0.9054,-0.904,-0.901,-0.899,-0.8959,-0.8944,-0.8923,-0.8901,-0.888,-0.887,-0.8841,-0.8843,-0.8829,-0.8815,-0.8814,-0.881,-0.88,-0.8811,-0.8827,-0.8828,-0.8807,-0.8807,-0.8807,0,-0.9179,-0.9137,-0.9116,-0.9101,-0.9056,-0.9047,-0.9027,-0.8996,-0.898,-0.8953,-0.8942,-0.8914,-0.8898,-0.8877,-0.8848,-0.8844,-0.8822,-0.881,-0.8808,-0.8809,-0.8804,-0.8805,-0.8818,-0.8796,-0.8796,-0.8796,-0.8796,0,-0.9185,-0.917,-0.9126,-0.9113,-0.9095,-0.9063,-0.9046,-0.9024,-0.8997,-0.8979,-0.8952,-0.8936,-0.8899,-0.8879,-0.8856,-0.8835,-0.8828,-0.8815,-0.8809,-0.8817,-0.8819,-0.8808,-0.8806,-0.8797,-0.8797,-0.8797,-0.8797,0,-0.9209,-0.9179,-0.9153,-0.9113,-0.9102,-0.9091,-0.9056,-0.9042,-0.9019,-0.8997,-0.899,-0.8953,-0.8928,-0.8897,-0.8861,-0.8846,-0.8827,-0.8819,-0.8838,-0.8834,-0.8835,-0.8835,-0.8841,-0.884,-0.8819,-0.8819,-0.882,0,-0.9215,-0.9202,-0.916,-0.9146,-0.9128,-0.9106,-0.9089,-0.9057,-0.9041,-0.9005,-0.8996,-0.8968,-0.8944,-0.8905,-0.8875,-0.8848,-0.8838,-0.8842,-0.8834,-0.8843,-0.8838,-0.8839,-0.8838,-0.8844,-0.8845,-0.8845,-0.8845,0,-0.9228,-0.9214,-0.919,-0.9162,-0.9143,-0.9119,-0.9094,-0.9084,-0.9047,-0.903,-0.9004,-0.8985,-0.8949,-0.8922,-0.8891,-0.8871,-0.8852,-0.8848,-0.8847,-0.8854,-0.8866,-0.886,-0.8843,-0.8848,-0.8848,-0.8848,-0.8848,-0.8847,-0.9242,-0.923,-0.9199,-0.9174,-0.9152,-0.9129,-0.9114,-0.9089,-0.9067,-0.9035,-0.9018,-0.8992,-0.8962,-0.8918,-0.8899,-0.8879,-0.8872,-0.8869,-0.8868,-0.8868,-0.8871,-0.887,-0.8873,-0.8873,-0.8873,-0.8873,-0.8872,0,-0.9254,-0.9233,-0.921,-0.9176,-0.9156,-0.914,-0.9112,-0.9097,-0.9074,-0.9048,-0.9025,-0.8995,-0.8969,-0.8938,-0.891,-0.8899,-0.889,-0.8893,-0.8893,-0.8889,-0.8878,-0.8883,-0.8901,-0.8901,-0.8901,-0.8901,-0.8901,-0.8901,-0.9258,-0.9237,-0.9219,-0.9186,-0.9164,-0.9139,-0.9124,-0.9103,-0.9082,-0.905,-0.9028,-0.9008,-0.8979,-0.8949,-0.8924,-0.8916,-0.8907,-0.8912,-0.8901,-0.8892,-0.889,-0.8887,-0.8891,-0.8911,-0.8911,-0.8913,-0.8913,-0.8913]},{"header":{"parameterUnit":"m.s-1","parameterCategory":1,"la1":30.2991,"la2":30.254,"lo1":-89.0895,"lo2":-89.0444,"dy":0.0017,"dx":0.0017,"nx":28,"ny":28,"refTime":"2024-07-02T03:00:00:Z","depth":0,"parameterNumber":3,"parameterNumberName":"V-component_of_WINDS"},"data":[0,0,0,0,0,0,0,0,0,0,0,0,0,0,0,0,0,0,0,0,0,0,0,0,0,0,0,0,0,0,0,0,0,0,0,0,0,0,0,0,0,0,0,0,0,0,0,0,0,0,0,0,0,0,0,0,0,0,3.7677,3.7677,0,3.7651,3.7651,3.7651,3.7614,3.7613,3.7612,3.7612,3.7584,3.7583,3.7583,0,0,0,0,0,0,0,0,0,0,0,0,0,3.7695,3.7695,3.7677,3.7677,3.7677,3.7651,3.7651,3.7651,3.7614,3.7613,3.7612,3.7611,3.7584,3.7583,3.7583,0,0,0,0,0,0,0,0,0,0,0,0,0,3.768,3.7695,3.7678,3.7655,3.7653,3.7651,3.7651,3.765,3.7614,3.7613,3.7612,3.7611,3.7584,3.7583,3.7583,3.7601,0,0,3.7583,3.7582,0,0,0,0,0,0,0,0,3.7681,3.7679,3.7659,3.7657,3.7654,3.7635,3.7647,3.7634,3.7614,3.7629,3.7612,3.7611,3.7601,3.76,3.7597,3.7599,3.7598,3.7583,3.7582,3.7582,3.7582,0,0,0,0,0,0,0,3.7682,3.768,3.7667,3.7659,3.7656,3.7646,3.7643,3.7644,3.7621,3.7627,3.7625,3.7622,3.76,3.7597,3.7596,3.7598,3.7583,3.7582,3.7582,3.7582,3.7614,3.7615,0,0,0,0,0,0,3.7686,3.7681,3.7668,3.7666,3.7666,3.7647,3.7643,3.7642,3.762,3.7616,3.7623,3.762,3.7598,3.7596,3.7595,3.7614,3.7582,3.7582,3.7582,3.7613,3.7614,3.7615,0,0,0,0,0,0,3.7687,3.7685,3.7669,3.7673,3.767,3.7648,3.7646,3.7642,3.7639,3.7617,3.7613,3.7624,3.7597,3.7595,3.76,3.7612,3.7582,3.7582,3.7612,3.7613,3.7615,3.7653,0,0,0,0,0,0,3.7687,3.7686,3.7692,3.7673,3.767,3.7675,3.7647,3.7642,3.7639,3.7635,3.7617,3.7613,3.7596,3.76,3.76,3.7612,3.7582,3.7611,3.7613,3.7614,3.765,3.7655,3.766,0,0,0,0,0,3.7688,3.7704,3.7693,3.7692,3.7678,3.7676,3.7674,3.7654,3.764,3.7646,3.7632,3.7614,3.7611,3.7601,3.76,3.7612,3.761,3.7612,3.7614,3.7648,3.7654,3.766,0,0,0,0,0,0,3.7724,3.7701,3.7689,3.7699,3.7689,3.7669,3.7677,3.7661,3.7655,3.7652,3.7627,3.7624,3.7632,3.7622,3.7611,3.7628,3.7608,3.761,3.7634,3.764,3.7644,3.7646,3.7581,0,0,0,0,0,3.7734,3.7734,3.7713,3.7724,3.772,3.7699,3.7698,3.7683,3.7673,3.7668,3.7655,3.7645,3.7642,3.764,3.7636,3.7649,3.7644,3.7657,3.7661,3.7665,3.7668,3.7674,3.7679,3.7623,3.7623,3.7623,0,0,3.7752,3.774,3.7741,3.7731,3.7722,3.7723,3.7696,3.7698,3.7698,3.7668,3.7672,3.7662,3.7649,3.7658,3.7662,3.7651,3.7682,3.7668,3.7672,3.7671,3.7677,3.7682,3.7687,3.7624,3.7624,3.7624,0,0,3.7787,3.7778,3.7786,3.7778,3.7765,3.7751,3.7753,3.7736,3.7728,3.7731,3.7709,3.7709,3.7704,3.7696,3.7692,3.7724,3.7707,3.7723,3.7748,3.7755,3.7759,3.7763,3.7775,3.7779,3.7726,3.7726,3.7726,0,3.7812,3.7813,3.7792,3.7795,3.7791,3.7765,3.7773,3.7766,3.7753,3.7751,3.7739,3.7733,3.7722,3.7729,3.7737,3.7734,3.7736,3.7725,3.776,3.7764,3.7767,3.7778,3.7783,3.7728,3.7728,3.7727,3.7727,0,3.7844,3.7845,3.7853,3.7841,3.7838,3.7844,3.7824,3.7823,3.781,3.7797,3.7801,3.7788,3.7781,3.7781,3.7767,3.7787,3.778,3.7765,3.7744,3.7775,3.7785,3.7789,3.7731,3.773,3.7729,3.7729,0,0,3.79,3.7878,3.7881,3.7876,3.786,3.786,3.7865,3.7858,3.7858,3.785,3.7853,3.785,3.7836,3.7831,3.7816,3.7822,3.7849,3.7805,3.7805,3.7814,3.7869,3.7881,3.7886,3.7837,3.7838,3.7839,3.787,0,3.7932,3.7939,3.7921,3.7932,3.7933,3.7908,3.7912,3.7903,3.7891,3.789,3.7877,3.7876,3.7857,3.7853,3.7858,3.7845,3.7859,3.7842,3.784,3.784,3.7844,3.7891,3.7904,3.7934,3.7874,3.7875,3.7875,0,3.797,3.7965,3.7976,3.7961,3.796,3.7964,3.7957,3.7956,3.7945,3.7936,3.7931,3.7914,3.7917,3.7897,3.7902,3.789,3.7888,3.7882,3.7882,3.7881,3.786,3.7892,3.7943,3.7948,3.7881,3.788,3.788,0,3.8011,3.8006,3.8012,3.8008,3.799,3.7993,3.7986,3.7974,3.7972,3.7965,3.7964,3.7958,3.7955,3.795,3.7932,3.7919,3.7939,3.7917,3.7931,3.7932,3.7936,3.7936,3.7989,3.7935,3.7935,3.7935,3.7935,0,3.8048,3.8056,3.803,3.8034,3.8043,3.8022,3.8031,3.802,3.801,3.8012,3.799,3.7992,3.7967,3.7967,3.7952,3.7958,3.7957,3.795,3.7946,3.7952,3.7953,3.795,3.7948,3.7936,3.7936,3.7936,3.7936,0,3.8095,3.8077,3.8083,3.8065,3.8061,3.8068,3.8053,3.8056,3.8043,3.8046,3.8045,3.8025,3.8023,3.8004,3.7998,3.7988,3.8,3.7992,3.8004,3.8001,3.8017,3.8016,3.8069,3.8075,3.8018,3.8019,3.8019,0,3.812,3.8125,3.8109,3.8108,3.8102,3.8102,3.8099,3.8079,3.8077,3.8065,3.807,3.8066,3.8062,3.806,3.8045,3.804,3.8032,3.8051,3.8031,3.8037,3.8032,3.8032,3.8033,3.8055,3.8056,3.8056,3.8057,0,3.8166,3.8158,3.8155,3.815,3.8148,3.8143,3.8136,3.8137,3.8114,3.8113,3.8111,3.8108,3.8102,3.8099,3.8091,3.8083,3.8066,3.8063,3.8066,3.8073,3.8079,3.8076,3.8015,3.8062,3.8062,3.8061,3.8061,3.8061,3.8203,3.8207,3.8196,3.8194,3.8187,3.8182,3.8184,3.8172,3.817,3.8163,3.8151,3.8151,3.814,3.8129,3.8122,3.8122,3.8112,3.8116,3.8117,3.8119,3.8122,3.808,3.812,3.812,3.812,3.812,3.8119,0,3.8248,3.824,3.8239,3.823,3.8229,3.8214,3.8206,3.8205,3.8206,3.8197,3.8194,3.8192,3.8189,3.8174,3.8169,3.8171,3.8163,3.8171,3.817,3.8169,3.8131,3.8129,3.8177,3.8177,3.8177,3.8177,3.8177,3.8177,3.8272,3.8278,3.8269,3.8271,3.8263,3.8263,3.826,3.8255,3.8248,3.8247,3.8244,3.8234,3.8223,3.8217,3.8214,3.8209,3.8209,3.8219,3.8212,3.8177,3.8171,3.8166,3.8164,3.8219,3.8219,3.825,3.825,3.825]}]]